Time,TemperatureF,DewpointF,PressureIn,WindDirection,WindDirectionDegrees,WindSpeedMPH,WindSpeedGustMPH,Humidity,HourlyPrecipIn,Conditions,Clouds,dailyrainin,SoftwareType,DateUTC
2013-04-30 00:02:00,78.8,66.1,29.83,East,90,4.7,7.6,65,0.00,,,0.00,WUHU216HW,2013-04-29 21:02:00,
2013-04-30 00:07:00,78.7,65.4,29.82,East,90,4.5,7.6,64,0.00,,,0.00,WUHU216HW,2013-04-29 21:07:00,
2013-04-30 00:12:00,78.7,65.4,29.82,East,90,4.0,5.8,64,0.00,,,0.00,WUHU216HW,2013-04-29 21:12:00,
2013-04-30 00:17:00,78.7,65.9,29.82,East,90,2.0,6.9,65,0.00,,,0.00,WUHU216HW,2013-04-29 21:17:00,
2013-04-30 00:22:00,78.7,65.9,29.82,ESE,113,1.6,6.9,65,0.00,,,0.00,WUHU216HW,2013-04-29 21:22:00,
2013-04-30 00:27:00,78.7,65.4,29.83,ESE,113,2.9,5.8,64,0.00,,,0.00,WUHU216HW,2013-04-29 21:27:00,
2013-04-30 00:32:00,78.7,65.4,29.83,SSE,158,3.1,5.1,64,0.00,,,0.00,WUHU216HW,2013-04-29 21:32:00,
2013-04-30 00:37:00,78.7,65.0,29.83,East,90,3.8,5.4,63,0.00,,,0.00,WUHU216HW,2013-04-29 21:37:00,
2013-04-30 00:42:00,78.7,65.0,29.83,SE,135,3.1,5.4,63,0.00,,,0.00,WUHU216HW,2013-04-29 21:42:00,
2013-04-30 00:47:00,78.5,64.9,29.83,SE,135,4.9,6.3,63,0.00,,,0.00,WUHU216HW,2013-04-29 21:47:00,
2013-04-30 00:52:00,78.5,64.9,29.83,SE,135,5.4,6.7,63,0.00,,,0.00,WUHU216HW,2013-04-29 21:52:00,
2013-04-30 00:57:00,78.5,65.3,29.83,ESE,113,5.6,6.7,64,0.00,,,0.00,WUHU216HW,2013-04-29 21:57:00,
2013-04-30 01:02:00,78.5,65.3,29.82,SE,135,2.9,6.9,64,0.00,,,0.00,WUHU216HW,2013-04-29 22:02:00,
2013-04-30 01:07:00,78.5,65.3,29.82,ESE,113,3.8,6.9,64,0.00,,,0.00,WUHU216HW,2013-04-29 22:07:00,
2013-04-30 01:12:00,78.3,65.1,29.82,ESE,113,3.6,5.4,64,0.00,,,0.00,WUHU216HW,2013-04-29 22:12:00,
2013-04-30 01:17:00,78.3,64.7,29.81,SSE,158,6.3,6.3,63,0.00,,,0.00,WUHU216HW,2013-04-29 22:17:00,
2013-04-30 01:22:00,78.3,64.7,29.81,SE,135,3.4,6.3,63,0.00,,,0.00,WUHU216HW,2013-04-29 22:22:00,
2013-04-30 01:27:00,78.3,63.8,29.81,ESE,113,4.7,6.3,61,0.00,,,0.00,WUHU216HW,2013-04-29 22:27:00,
2013-04-30 01:32:00,78.3,63.8,29.81,ESE,113,4.0,6.3,61,0.00,,,0.00,WUHU216HW,2013-04-29 22:32:00,
2013-04-30 01:37:00,78.3,64.3,29.80,ESE,113,5.4,7.2,62,0.00,,,0.00,WUHU216HW,2013-04-29 22:37:00,
2013-04-30 01:42:00,78.3,64.3,29.81,ESE,113,5.1,8.1,62,0.00,,,0.00,WUHU216HW,2013-04-29 22:42:00,
2013-04-30 01:47:00,78.1,63.6,29.81,ESE,113,5.6,8.1,61,0.00,,,0.00,WUHU216HW,2013-04-29 22:47:00,
2013-04-30 01:52:00,78.1,64.1,29.80,SE,135,8.5,8.9,62,0.00,,,0.00,WUHU216HW,2013-04-29 22:52:00,
2013-04-30 01:57:00,78.1,64.5,29.81,SE,135,6.5,8.9,63,0.00,,,0.00,WUHU216HW,2013-04-29 22:57:00,
2013-04-30 02:02:00,77.9,63.5,29.81,SE,135,6.3,8.7,61,0.00,,,0.00,WUHU216HW,2013-04-29 23:02:00,
2013-04-30 02:07:00,78.1,64.5,29.81,SE,135,5.8,8.7,63,0.00,,,0.00,WUHU216HW,2013-04-29 23:07:00,
2013-04-30 02:12:00,78.1,65.0,29.81,SSE,158,4.9,8.5,64,0.00,,,0.00,WUHU216HW,2013-04-29 23:12:00,
2013-04-30 02:17:00,78.1,65.3,29.80,SSW,203,3.6,8.5,65,0.00,,,0.00,WUHU216HW,2013-04-29 23:17:00,
2013-04-30 02:22:00,77.9,65.6,29.80,SSE,158,6.5,7.2,66,0.00,,,0.00,WUHU216HW,2013-04-29 23:22:00,
2013-04-30 02:27:00,77.9,65.6,29.80,ESE,113,4.5,7.2,66,0.00,,,0.00,WUHU216HW,2013-04-29 23:27:00,
2013-04-30 02:32:00,77.9,65.6,29.79,SSE,158,4.3,5.6,66,0.00,,,0.00,WUHU216HW,2013-04-29 23:32:00,
2013-04-30 02:37:00,77.9,66.1,29.79,East,90,5.4,5.8,67,0.00,,,0.00,WUHU216HW,2013-04-29 23:37:00,
2013-04-30 02:42:00,77.9,66.1,29.79,East,90,3.6,5.8,67,0.00,,,0.00,WUHU216HW,2013-04-29 23:42:00,
2013-04-30 02:47:00,77.9,65.6,29.79,ESE,113,4.7,5.4,66,0.00,,,0.00,WUHU216HW,2013-04-29 23:47:00,
2013-04-30 02:52:00,77.9,66.1,29.79,SE,135,4.9,5.6,67,0.00,,,0.00,WUHU216HW,2013-04-29 23:52:00,
2013-04-30 02:57:00,77.8,66.3,29.79,SE,135,5.1,6.3,68,0.00,,,0.00,WUHU216HW,2013-04-29 23:57:00,
2013-04-30 03:02:00,77.8,65.9,29.79,SE,135,4.5,7.8,67,0.00,,,0.00,WUHU216HW,2013-04-30 00:02:00,
2013-04-30 03:07:00,77.8,66.3,29.79,SE,135,7.6,7.8,68,0.00,,,0.00,WUHU216HW,2013-04-30 00:07:00,
2013-04-30 03:12:00,77.8,65.9,29.79,SE,135,4.7,7.6,67,0.00,,,0.00,WUHU216HW,2013-04-30 00:12:00,
2013-04-30 03:17:00,77.8,66.3,29.79,SE,135,5.4,7.6,68,0.00,,,0.00,WUHU216HW,2013-04-30 00:17:00,
2013-04-30 03:22:00,77.6,65.8,29.80,SSE,158,7.6,7.6,67,0.00,,,0.00,WUHU216HW,2013-04-30 00:22:00,
2013-04-30 03:27:00,77.6,65.8,29.80,SSE,158,4.7,9.2,67,0.00,,,0.00,WUHU216HW,2013-04-30 00:27:00,
2013-04-30 03:32:00,77.6,66.3,29.81,ESE,113,5.8,9.2,68,0.00,,,0.00,WUHU216HW,2013-04-30 00:32:00,
2013-04-30 03:37:00,77.4,65.6,29.81,SE,135,6.7,10.7,67,0.00,,,0.00,WUHU216HW,2013-04-30 00:37:00,
2013-04-30 03:42:00,77.6,65.8,29.81,SE,135,6.5,10.7,67,0.00,,,0.00,WUHU216HW,2013-04-30 00:42:00,
2013-04-30 03:47:00,77.6,65.8,29.81,ESE,113,3.6,8.3,67,0.00,,,0.00,WUHU216HW,2013-04-30 00:47:00,
2013-04-30 03:52:00,77.6,65.8,29.81,SE,135,4.7,7.6,67,0.00,,,0.00,WUHU216HW,2013-04-30 00:52:00,
2013-04-30 03:57:00,77.8,65.9,29.81,SE,135,5.4,7.2,67,0.00,,,0.00,WUHU216HW,2013-04-30 00:57:00,
2013-04-30 04:02:00,77.8,65.9,29.82,SSE,158,4.7,7.2,67,0.00,,,0.00,WUHU216HW,2013-04-30 01:02:00,
2013-04-30 04:07:00,77.8,65.9,29.81,SSE,158,8.3,8.7,67,0.00,,,0.00,WUHU216HW,2013-04-30 01:07:00,
2013-04-30 04:12:00,77.8,65.9,29.82,SSW,203,5.4,8.7,67,0.00,,,0.00,WUHU216HW,2013-04-30 01:12:00,
2013-04-30 04:17:00,77.8,65.9,29.81,South,180,4.3,8.3,67,0.00,,,0.00,WUHU216HW,2013-04-30 01:17:00,
2013-04-30 04:22:00,77.8,65.9,29.82,SSE,158,5.1,7.2,67,0.00,,,0.00,WUHU216HW,2013-04-30 01:22:00,
2013-04-30 04:27:00,77.8,65.9,29.82,South,180,6.3,7.2,67,0.00,,,0.00,WUHU216HW,2013-04-30 01:27:00,
2013-04-30 04:32:00,77.8,65.9,29.82,South,180,5.8,6.3,67,0.00,,,0.00,WUHU216HW,2013-04-30 01:32:00,
2013-04-30 04:38:00,77.8,65.9,29.82,SSE,158,6.3,6.7,67,0.00,,,0.00,WUHU216HW,2013-04-30 01:38:00,
2013-04-30 04:42:00,77.8,65.9,29.83,SSE,158,4.0,6.7,67,0.00,,,0.00,WUHU216HW,2013-04-30 01:42:00,
2013-04-30 04:47:00,77.6,65.8,29.83,South,180,2.5,6.3,67,0.00,,,0.00,WUHU216HW,2013-04-30 01:47:00,
2013-04-30 04:52:00,77.6,65.8,29.83,SSE,158,3.6,5.1,67,0.00,,,0.00,WUHU216HW,2013-04-30 01:52:00,
2013-04-30 04:57:00,77.4,65.6,29.84,South,180,1.8,5.4,67,0.00,,,0.00,WUHU216HW,2013-04-30 01:57:00,
2013-04-30 05:02:00,77.6,65.8,29.84,SW,225,3.6,5.4,67,0.00,,,0.00,WUHU216HW,2013-04-30 02:02:00,
2013-04-30 05:08:00,77.4,65.6,29.84,SSW,203,4.7,6.5,67,0.00,,,0.00,WUHU216HW,2013-04-30 02:08:00,
2013-04-30 05:13:00,77.4,65.6,29.84,SSW,203,2.7,6.5,67,0.00,,,0.00,WUHU216HW,2013-04-30 02:13:00,
2013-04-30 05:18:00,77.4,65.6,29.84,SSW,203,1.8,5.8,67,0.00,,,0.00,WUHU216HW,2013-04-30 02:18:00,
2013-04-30 05:23:00,77.2,65.4,29.85,SW,225,5.6,5.8,67,0.00,,,0.00,WUHU216HW,2013-04-30 02:23:00,
2013-04-30 05:28:00,77.2,65.0,29.85,WSW,248,1.3,5.6,66,0.00,,,0.00,WUHU216HW,2013-04-30 02:28:00,
2013-04-30 05:33:00,77.2,65.0,29.85,South,180,4.9,5.6,66,0.00,,,0.00,WUHU216HW,2013-04-30 02:33:00,
2013-04-30 05:38:00,77.2,65.4,29.85,SSW,203,2.2,6.3,67,0.00,,,0.00,WUHU216HW,2013-04-30 02:38:00,
2013-04-30 05:43:00,77.2,65.4,29.85,SSW,203,2.5,6.3,67,0.00,,,0.00,WUHU216HW,2013-04-30 02:43:00,
2013-04-30 05:48:00,77.2,65.9,29.86,South,180,2.9,7.2,68,0.00,,,0.00,WUHU216HW,2013-04-30 02:48:00,
2013-04-30 05:53:00,77.2,66.3,29.86,SSW,203,4.9,7.2,69,0.00,,,0.00,WUHU216HW,2013-04-30 02:53:00,
2013-04-30 05:58:00,77.0,66.6,29.86,ESE,113,1.8,6.5,70,0.00,,,0.00,WUHU216HW,2013-04-30 02:58:00,
2013-04-30 06:03:00,77.0,66.6,29.86,SW,225,6.5,6.5,70,0.00,,,0.00,WUHU216HW,2013-04-30 03:03:00,
2013-04-30 06:08:00,77.0,67.0,29.86,South,180,2.9,6.5,71,0.00,,,0.00,WUHU216HW,2013-04-30 03:08:00,
2013-04-30 06:13:00,76.9,66.8,29.87,South,180,4.7,6.5,71,0.00,,,0.00,WUHU216HW,2013-04-30 03:13:00,
2013-04-30 06:18:00,76.7,67.4,29.87,SSW,203,3.4,7.6,73,0.00,,,0.00,WUHU216HW,2013-04-30 03:18:00,
2013-04-30 06:23:00,76.7,67.4,29.87,WSW,248,2.5,7.8,73,0.00,,,0.00,WUHU216HW,2013-04-30 03:23:00,
2013-04-30 06:28:00,76.5,67.6,29.88,SSW,203,2.5,7.8,74,0.00,,,0.00,WUHU216HW,2013-04-30 03:28:00,
2013-04-30 06:33:00,76.3,67.8,29.88,WSW,248,5.1,5.4,75,0.00,,,0.00,WUHU216HW,2013-04-30 03:33:00,
2013-04-30 06:38:00,76.3,68.2,29.88,WSW,248,3.1,7.4,76,0.00,,,0.00,WUHU216HW,2013-04-30 03:38:00,
2013-04-30 06:43:00,76.1,68.4,29.88,West,270,2.7,7.4,77,0.00,,,0.00,WUHU216HW,2013-04-30 03:43:00,
2013-04-30 06:48:00,76.1,68.4,29.88,WSW,248,3.4,5.4,77,0.00,,,0.00,WUHU216HW,2013-04-30 03:48:00,
2013-04-30 06:53:00,76.0,68.2,29.88,WSW,248,2.7,5.4,77,0.00,,,0.00,WUHU216HW,2013-04-30 03:53:00,
2013-04-30 06:58:00,76.0,68.7,29.87,West,270,3.4,4.7,78,0.00,,,0.00,WUHU216HW,2013-04-30 03:58:00,
2013-04-30 07:01:00,76.1,68.8,29.87,WSW,248,3.8,4.9,78,0.00,,,0.00,WUHU216HW,2013-04-30 04:01:00,
2013-04-30 07:06:00,76.1,68.8,29.87,WSW,248,5.4,6.7,78,0.00,,,0.00,WUHU216HW,2013-04-30 04:06:00,
2013-04-30 07:11:00,76.0,68.7,29.88,WNW,293,3.4,6.7,78,0.00,,,0.00,WUHU216HW,2013-04-30 04:11:00,
2013-04-30 07:16:00,76.3,68.9,29.88,WSW,248,4.7,6.0,78,0.00,,,0.00,WUHU216HW,2013-04-30 04:16:00,
2013-04-30 07:21:00,76.3,68.9,29.88,WSW,248,5.6,5.6,78,0.00,,,0.00,WUHU216HW,2013-04-30 04:21:00,
2013-04-30 07:26:00,76.3,68.9,29.88,SW,225,7.8,7.8,78,0.00,,,0.00,WUHU216HW,2013-04-30 04:26:00,
2013-04-30 07:31:00,76.1,68.8,29.88,SW,225,7.6,9.4,78,0.00,,,0.00,WUHU216HW,2013-04-30 04:31:00,
2013-04-30 07:36:00,76.1,68.8,29.87,WSW,248,4.0,9.4,78,0.00,,,0.00,WUHU216HW,2013-04-30 04:36:00,
2013-04-30 07:41:00,76.3,68.9,29.87,WSW,248,5.4,8.9,78,0.00,,,0.00,WUHU216HW,2013-04-30 04:41:00,
2013-04-30 07:46:00,76.3,68.6,29.87,WSW,248,4.7,6.5,77,0.00,,,0.00,WUHU216HW,2013-04-30 04:46:00,
2013-04-30 07:51:00,76.3,68.6,29.87,West,270,4.3,6.9,77,0.00,,,0.00,WUHU216HW,2013-04-30 04:51:00,
2013-04-30 07:56:00,76.3,68.2,29.87,WSW,248,3.6,6.9,76,0.00,,,0.00,WUHU216HW,2013-04-30 04:56:00,
2013-04-30 08:01:00,76.5,68.4,29.87,West,270,2.5,5.6,76,0.00,,,0.00,WUHU216HW,2013-04-30 05:01:00,
2013-04-30 08:06:00,76.7,68.5,29.87,SSW,203,4.0,5.6,76,0.00,,,0.00,WUHU216HW,2013-04-30 05:06:00,
2013-04-30 08:11:00,76.7,68.1,29.87,SSW,203,1.3,4.0,75,0.00,,,0.00,WUHU216HW,2013-04-30 05:11:00,
2013-04-30 08:16:00,76.9,68.3,29.87,SSE,158,1.3,4.5,75,0.00,,,0.00,WUHU216HW,2013-04-30 05:16:00,
2013-04-30 08:21:00,77.0,68.5,29.87,SSE,158,2.5,4.5,75,0.00,,,0.00,WUHU216HW,2013-04-30 05:21:00,
2013-04-30 08:26:00,77.2,68.7,29.88,SW,225,1.8,6.0,75,0.00,,,0.00,WUHU216HW,2013-04-30 05:26:00,
2013-04-30 08:31:00,77.4,68.9,29.87,South,180,1.8,6.0,75,0.00,,,0.00,WUHU216HW,2013-04-30 05:31:00,
2013-04-30 08:36:00,77.4,68.9,29.88,South,180,2.9,6.0,75,0.00,,,0.00,WUHU216HW,2013-04-30 05:36:00,
2013-04-30 08:41:00,77.2,68.7,29.88,SSW,203,4.3,4.9,75,0.00,,,0.00,WUHU216HW,2013-04-30 05:41:00,
2013-04-30 08:46:00,77.2,68.7,29.87,SSW,203,1.1,4.9,75,0.00,,,0.00,WUHU216HW,2013-04-30 05:46:00,
2013-04-30 08:51:00,77.0,68.5,29.88,SSW,203,2.7,4.5,75,0.00,,,0.00,WUHU216HW,2013-04-30 05:51:00,
2013-04-30 08:56:00,77.2,68.7,29.87,SW,225,2.2,4.3,75,0.00,,,0.00,WUHU216HW,2013-04-30 05:56:00,
2013-04-30 09:01:00,77.2,68.7,29.87,WSW,248,1.6,3.6,75,0.00,,,0.00,WUHU216HW,2013-04-30 06:01:00,
2013-04-30 09:06:00,77.2,68.7,29.87,SW,225,2.5,3.4,75,0.00,,,0.00,WUHU216HW,2013-04-30 06:06:00,
2013-04-30 09:11:00,77.2,69.0,29.87,WSW,248,1.8,2.5,76,0.00,,,0.00,WUHU216HW,2013-04-30 06:11:00,
2013-04-30 09:16:00,77.2,69.0,29.87,SSW,203,0.0,2.5,76,0.00,,,0.00,WUHU216HW,2013-04-30 06:16:00,
2013-04-30 09:21:00,77.4,69.2,29.87,SE,135,1.1,2.2,76,0.00,,,0.00,WUHU216HW,2013-04-30 06:21:00,
2013-04-30 09:26:00,77.8,69.6,29.87,SE,135,1.1,2.5,76,0.00,,,0.00,WUHU216HW,2013-04-30 06:26:00,
2013-04-30 09:31:00,77.9,69.8,29.87,SE,135,2.5,2.5,76,0.00,,,0.00,WUHU216HW,2013-04-30 06:31:00,
2013-04-30 09:36:00,78.1,69.9,29.87,ENE,68,1.1,2.5,76,0.00,,,0.00,WUHU216HW,2013-04-30 06:36:00,
2013-04-30 09:41:00,78.1,69.9,29.87,SE,135,1.6,3.8,76,0.00,,,0.00,WUHU216HW,2013-04-30 06:41:00,
2013-04-30 09:46:00,78.3,70.5,29.87,SE,135,2.7,3.8,77,0.00,,,0.00,WUHU216HW,2013-04-30 06:46:00,
2013-04-30 09:51:00,78.1,70.3,29.87,SE,135,2.2,4.3,77,0.00,,,0.00,WUHU216HW,2013-04-30 06:51:00,
2013-04-30 09:56:00,78.1,70.3,29.87,East,90,6.3,6.3,77,0.00,,,0.00,WUHU216HW,2013-04-30 06:56:00,
2013-04-30 10:01:00,77.8,70.3,29.86,ESE,113,4.7,6.3,78,0.00,,,0.00,WUHU216HW,2013-04-30 07:01:00,
2013-04-30 10:06:00,77.6,70.1,29.86,East,90,5.4,6.3,78,0.00,,,0.00,WUHU216HW,2013-04-30 07:06:00,
2013-04-30 10:11:00,77.8,69.9,29.86,East,90,2.9,6.3,77,0.00,,,0.00,WUHU216HW,2013-04-30 07:11:00,
2013-04-30 10:16:00,77.8,68.4,29.87,ESE,113,3.8,6.3,73,0.00,,,0.00,WUHU216HW,2013-04-30 07:16:00,
2013-04-30 10:21:00,77.9,67.0,29.87,East,90,6.0,6.3,69,0.00,,,0.00,WUHU216HW,2013-04-30 07:21:00,
2013-04-30 10:26:00,78.3,66.9,29.87,ENE,68,4.5,6.7,68,0.00,,,0.00,WUHU216HW,2013-04-30 07:26:00,
2013-04-30 10:31:00,78.3,63.8,29.86,ESE,113,5.1,6.7,61,0.00,,,0.00,WUHU216HW,2013-04-30 07:31:00,
2013-04-30 10:36:00,78.5,63.5,29.86,ESE,113,5.1,6.3,60,0.00,,,0.00,WUHU216HW,2013-04-30 07:36:00,
2013-04-30 10:41:00,78.5,62.0,29.87,ESE,113,4.0,5.4,57,0.00,,,0.00,WUHU216HW,2013-04-30 07:41:00,
2013-04-30 10:46:00,78.5,60.9,29.86,ENE,68,3.8,5.8,55,0.00,,,0.00,WUHU216HW,2013-04-30 07:46:00,
2013-04-30 10:51:00,78.5,59.4,29.86,ENE,68,3.8,5.8,52,0.00,,,0.00,WUHU216HW,2013-04-30 07:51:00,
2013-04-30 10:56:00,78.7,60.6,29.86,NE,45,5.4,5.4,54,0.00,,,0.00,WUHU216HW,2013-04-30 07:56:00,
2013-04-30 11:01:00,78.8,61.3,29.87,ESE,113,2.5,5.4,55,0.00,,,0.00,WUHU216HW,2013-04-30 08:01:00,
2013-04-30 11:06:00,79.0,60.9,29.87,East,90,3.6,5.4,54,0.00,,,0.00,WUHU216HW,2013-04-30 08:06:00,
2013-04-30 11:11:00,79.2,61.1,29.87,NE,45,4.3,5.4,54,0.00,,,0.00,WUHU216HW,2013-04-30 08:11:00,
2013-04-30 11:16:00,79.2,60.0,29.87,NE,45,4.3,5.4,52,0.00,,,0.00,WUHU216HW,2013-04-30 08:16:00,
2013-04-30 11:21:00,79.4,61.3,29.87,East,90,3.6,4.7,54,0.00,,,0.00,WUHU216HW,2013-04-30 08:21:00,
2013-04-30 11:26:00,79.4,61.3,29.87,NE,45,2.9,4.5,54,0.00,,,0.00,WUHU216HW,2013-04-30 08:26:00,
2013-04-30 11:32:00,79.4,60.8,29.87,NNE,23,4.7,5.8,53,0.00,,,0.00,WUHU216HW,2013-04-30 08:32:00,
2013-04-30 11:37:00,79.2,60.0,29.87,ENE,68,4.0,6.3,52,0.00,,,0.00,WUHU216HW,2013-04-30 08:37:00,
2013-04-30 11:42:00,79.2,60.0,29.87,ENE,68,3.6,6.3,52,0.00,,,0.00,WUHU216HW,2013-04-30 08:42:00,
2013-04-30 11:47:00,79.4,60.2,29.86,East,90,4.7,6.3,52,0.00,,,0.00,WUHU216HW,2013-04-30 08:47:00,
2013-04-30 11:52:00,79.4,59.7,29.86,ENE,68,7.2,7.2,51,0.00,,,0.00,WUHU216HW,2013-04-30 08:52:00,
2013-04-30 11:57:00,79.6,60.9,29.86,NE,45,4.5,7.2,53,0.00,,,0.00,WUHU216HW,2013-04-30 08:57:00,
2013-04-30 12:02:00,79.6,62.5,29.86,North,0,6.0,6.5,56,0.00,,,0.00,WUHU216HW,2013-04-30 09:02:00,
2013-04-30 12:07:00,79.0,63.0,29.86,NNE,23,2.9,6.7,58,0.00,,,0.00,WUHU216HW,2013-04-30 09:07:00,
2013-04-30 12:12:00,78.8,63.4,29.86,North,0,7.2,7.6,59,0.00,,,0.00,WUHU216HW,2013-04-30 09:12:00,
2013-04-30 12:17:00,79.2,63.7,29.85,ENE,68,4.7,7.6,59,0.00,,,0.00,WUHU216HW,2013-04-30 09:17:00,
2013-04-30 12:22:00,79.2,62.6,29.85,North,0,3.1,8.1,57,0.00,,,0.00,WUHU216HW,2013-04-30 09:22:00,
2013-04-30 12:27:00,79.0,62.0,29.86,NNW,338,10.1,10.1,56,0.00,,,0.00,WUHU216HW,2013-04-30 09:27:00,
2013-04-30 12:32:00,79.0,62.5,29.85,NNE,23,1.8,10.1,57,0.00,,,0.00,WUHU216HW,2013-04-30 09:32:00,
2013-04-30 12:37:00,79.0,63.5,29.85,NNE,23,3.1,10.1,59,0.00,,,0.00,WUHU216HW,2013-04-30 09:37:00,
2013-04-30 12:42:00,79.2,64.6,29.85,North,0,3.8,9.4,61,0.00,,,0.00,WUHU216HW,2013-04-30 09:42:00,
2013-04-30 12:47:00,79.4,64.8,29.84,ENE,68,6.0,11.4,61,0.00,,,0.00,WUHU216HW,2013-04-30 09:47:00,
2013-04-30 12:52:00,79.6,65.4,29.84,NNE,23,9.8,11.4,62,0.00,,,0.00,WUHU216HW,2013-04-30 09:52:00,
2013-04-30 12:57:00,79.6,65.0,29.84,NNE,23,6.7,10.7,61,0.00,,,0.00,WUHU216HW,2013-04-30 09:57:00,
2013-04-30 13:02:00,79.6,64.0,29.84,NNE,23,9.4,13.6,59,0.00,,,0.00,WUHU216HW,2013-04-30 10:02:00,
2013-04-30 13:07:00,79.7,63.6,29.84,ESE,113,5.1,13.6,58,0.00,,,0.00,WUHU216HW,2013-04-30 10:07:00,
2013-04-30 13:12:00,79.9,62.8,29.84,ENE,68,5.1,10.7,56,0.00,,,0.00,WUHU216HW,2013-04-30 10:12:00,
2013-04-30 13:17:00,80.5,62.7,29.84,ENE,68,8.3,9.4,55,0.00,,,0.00,WUHU216HW,2013-04-30 10:17:00,
2013-04-30 13:22:00,81.0,63.7,29.84,East,90,9.8,13.2,56,0.00,,,0.00,WUHU216HW,2013-04-30 10:22:00,
2013-04-30 13:27:00,81.5,64.8,29.84,ESE,113,5.8,13.2,57,0.00,,,0.00,WUHU216HW,2013-04-30 10:27:00,
2013-04-30 13:32:00,81.5,64.3,29.84,ENE,68,7.4,12.5,56,0.00,,,0.00,WUHU216HW,2013-04-30 10:32:00,
2013-04-30 13:37:00,81.5,66.3,29.83,ESE,113,5.1,12.3,60,0.00,,,0.00,WUHU216HW,2013-04-30 10:37:00,
2013-04-30 13:42:00,81.4,67.1,29.83,NNE,23,9.4,13.4,62,0.00,,,0.00,WUHU216HW,2013-04-30 10:42:00,
2013-04-30 13:47:00,81.2,66.4,29.83,NNW,338,11.0,14.3,61,0.00,,,0.00,WUHU216HW,2013-04-30 10:47:00,
2013-04-30 13:52:00,81.5,66.8,29.83,NNE,23,10.5,14.3,61,0.00,,,0.00,WUHU216HW,2013-04-30 10:52:00,
2013-04-30 13:57:00,81.4,66.2,29.83,ENE,68,7.6,12.8,60,0.00,,,0.00,WUHU216HW,2013-04-30 10:57:00,
2013-04-30 14:02:00,81.2,66.0,29.83,North,0,6.3,12.3,60,0.00,,,0.00,WUHU216HW,2013-04-30 11:02:00,
2013-04-30 14:07:00,80.6,65.5,29.83,ENE,68,10.5,12.8,60,0.00,,,0.00,WUHU216HW,2013-04-30 11:07:00,
2013-04-30 14:12:00,80.3,65.6,29.83,North,0,9.6,14.1,61,0.00,,,0.00,WUHU216HW,2013-04-30 11:12:00,
2013-04-30 14:17:00,80.1,65.9,29.83,NW,315,9.2,14.1,62,0.00,,,0.00,WUHU216HW,2013-04-30 11:17:00,
2013-04-30 14:22:00,79.9,65.8,29.82,NNE,23,13.6,14.1,62,0.00,,,0.00,WUHU216HW,2013-04-30 11:22:00,
2013-04-30 14:27:00,79.7,65.6,29.82,NNE,23,9.2,14.8,62,0.00,,,0.00,WUHU216HW,2013-04-30 11:27:00,
2013-04-30 14:32:00,79.9,65.8,29.82,NNE,23,8.5,14.8,62,0.00,,,0.00,WUHU216HW,2013-04-30 11:32:00,
2013-04-30 14:37:00,79.9,65.4,29.82,NNW,338,8.9,14.3,61,0.00,,,0.00,WUHU216HW,2013-04-30 11:37:00,
2013-04-30 14:42:00,79.7,65.6,29.82,ESE,113,7.4,18.1,62,0.00,,,0.00,WUHU216HW,2013-04-30 11:42:00,
2013-04-30 14:47:00,79.6,65.4,29.82,NNW,338,9.8,18.1,62,0.00,,,0.00,WUHU216HW,2013-04-30 11:47:00,
2013-04-30 14:52:00,79.2,65.1,29.82,North,0,16.6,19.7,62,0.00,,,0.00,WUHU216HW,2013-04-30 11:52:00,
2013-04-30 14:57:00,78.8,64.8,29.82,NNE,23,12.8,19.7,62,0.00,,,0.00,WUHU216HW,2013-04-30 11:57:00,
2013-04-30 15:02:00,78.8,64.8,29.82,NNE,23,9.8,19.2,62,0.00,,,0.00,WUHU216HW,2013-04-30 12:02:00,
2013-04-30 15:07:00,78.7,65.0,29.82,NE,45,9.8,17.0,63,0.00,,,0.00,WUHU216HW,2013-04-30 12:07:00,
2013-04-30 15:12:00,78.5,64.9,29.82,ESE,113,9.6,17.0,63,0.00,,,0.00,WUHU216HW,2013-04-30 12:12:00,
2013-04-30 15:17:00,78.3,64.7,29.81,NNW,338,9.4,16.3,63,0.00,,,0.00,WUHU216HW,2013-04-30 12:17:00,
2013-04-30 15:22:00,78.1,64.5,29.81,NE,45,10.5,15.9,63,0.00,,,0.00,WUHU216HW,2013-04-30 12:22:00,
2013-04-30 15:27:00,78.1,64.5,29.81,NNE,23,14.5,17.2,63,0.00,,,0.00,WUHU216HW,2013-04-30 12:27:00,
2013-04-30 15:32:00,77.8,64.2,29.81,NE,45,14.3,17.2,63,0.00,,,0.00,WUHU216HW,2013-04-30 12:32:00,
2013-04-30 15:37:00,77.8,64.6,29.81,East,90,6.7,16.1,64,0.00,,,0.00,WUHU216HW,2013-04-30 12:37:00,
2013-04-30 15:42:00,77.6,64.5,29.80,North,0,12.5,19.7,64,0.00,,,0.00,WUHU216HW,2013-04-30 12:42:00,
2013-04-30 15:47:00,77.4,64.3,29.81,ENE,68,7.6,19.7,64,0.00,,,0.00,WUHU216HW,2013-04-30 12:47:00,
2013-04-30 15:52:00,77.4,64.3,29.81,NNE,23,11.0,19.2,64,0.00,,,0.00,WUHU216HW,2013-04-30 12:52:00,
2013-04-30 15:57:00,77.2,63.6,29.81,NNE,23,15.7,17.9,63,0.00,,,0.00,WUHU216HW,2013-04-30 12:57:00,
2013-04-30 16:02:00,77.0,63.5,29.80,North,0,15.7,18.3,63,0.00,,,0.00,WUHU216HW,2013-04-30 13:02:00,
2013-04-30 16:07:00,77.0,63.5,29.80,North,0,8.9,18.3,63,0.00,,,0.00,WUHU216HW,2013-04-30 13:07:00,
2013-04-30 16:12:00,77.0,63.9,29.80,NNE,23,12.3,16.1,64,0.00,,,0.00,WUHU216HW,2013-04-30 13:12:00,
2013-04-30 16:17:00,77.0,63.5,29.80,NNE,23,9.2,15.7,63,0.00,,,0.00,WUHU216HW,2013-04-30 13:17:00,
2013-04-30 16:22:00,77.0,64.4,29.80,NE,45,10.7,19.7,65,0.00,,,0.00,WUHU216HW,2013-04-30 13:22:00,
2013-04-30 16:27:00,77.0,64.8,29.79,NNE,23,8.5,19.7,66,0.00,,,0.00,WUHU216HW,2013-04-30 13:27:00,
2013-04-30 16:32:00,77.0,65.3,29.79,NNE,23,7.6,15.7,67,0.00,,,0.00,WUHU216HW,2013-04-30 13:32:00,
2013-04-30 16:37:00,77.2,65.0,29.79,ENE,68,7.8,14.3,66,0.00,,,0.00,WUHU216HW,2013-04-30 13:37:00,
2013-04-30 16:42:00,77.2,65.0,29.79,North,0,9.6,17.4,66,0.00,,,0.00,WUHU216HW,2013-04-30 13:42:00,
2013-04-30 16:47:00,77.4,65.6,29.79,NE,45,7.6,17.4,67,0.00,,,0.00,WUHU216HW,2013-04-30 13:47:00,
2013-04-30 16:52:00,77.4,65.6,29.81,NNE,23,4.5,13.0,67,0.00,,,0.00,WUHU216HW,2013-04-30 13:52:00,
2013-04-30 16:57:00,77.4,65.6,29.81,NE,45,10.3,13.4,67,0.00,,,0.00,WUHU216HW,2013-04-30 13:57:00,
2013-04-30 17:02:00,77.2,65.9,29.81,ENE,68,10.7,14.5,68,0.00,,,0.00,WUHU216HW,2013-04-30 14:02:00,
2013-04-30 17:07:00,77.2,65.9,29.82,ENE,68,8.3,15.0,68,0.00,,,0.00,WUHU216HW,2013-04-30 14:07:00,
2013-04-30 17:12:00,77.2,65.9,29.82,ENE,68,5.1,17.2,68,0.00,,,0.00,WUHU216HW,2013-04-30 14:12:00,
2013-04-30 17:17:00,77.0,65.3,29.82,ESE,113,8.7,17.2,67,0.00,,,0.00,WUHU216HW,2013-04-30 14:17:00,
2013-04-30 17:22:00,77.0,64.8,29.81,NNE,23,10.5,12.8,66,0.00,,,0.00,WUHU216HW,2013-04-30 14:22:00,
2013-04-30 17:27:00,77.0,64.8,29.81,ESE,113,11.4,11.4,66,0.00,,,0.00,WUHU216HW,2013-04-30 14:27:00,
2013-04-30 17:32:00,77.4,66.5,29.80,ENE,68,11.0,12.3,69,0.00,,,0.00,WUHU216HW,2013-04-30 14:32:00,
2013-04-30 17:37:00,77.2,66.3,29.81,ENE,68,4.7,14.5,69,0.00,,,0.00,WUHU216HW,2013-04-30 14:37:00,
2013-04-30 17:42:00,77.2,65.9,29.81,NE,45,10.1,14.5,68,0.00,,,0.00,WUHU216HW,2013-04-30 14:42:00,
2013-04-30 17:47:00,77.2,65.9,29.79,ENE,68,11.2,15.2,68,0.00,,,0.00,WUHU216HW,2013-04-30 14:47:00,
2013-04-30 17:52:00,77.0,65.7,29.78,ENE,68,11.6,15.2,68,0.00,,,0.00,WUHU216HW,2013-04-30 14:52:00,
2013-04-30 17:57:00,77.0,65.7,29.79,NNE,23,5.4,15.0,68,0.00,,,0.00,WUHU216HW,2013-04-30 14:57:00,
2013-04-30 18:02:00,77.0,65.7,29.77,ENE,68,15.7,17.0,68,0.00,,,0.00,WUHU216HW,2013-04-30 15:02:00,
2013-04-30 18:07:00,77.0,66.6,29.78,NNW,338,7.6,17.0,70,0.00,,,0.00,WUHU216HW,2013-04-30 15:07:00,
2013-04-30 18:12:00,76.9,66.8,29.80,ENE,68,7.6,17.0,71,0.00,,,0.00,WUHU216HW,2013-04-30 15:12:00,
2013-04-30 18:17:00,76.9,66.8,29.81,North,0,12.8,15.7,71,0.00,,,0.00,WUHU216HW,2013-04-30 15:17:00,
2013-04-30 18:22:00,76.7,67.0,29.81,NE,45,16.1,17.2,72,0.00,,,0.00,WUHU216HW,2013-04-30 15:22:00,
2013-04-30 18:27:00,76.5,67.2,29.82,ENE,68,9.8,17.2,73,0.00,,,0.00,WUHU216HW,2013-04-30 15:27:00,
2013-04-30 18:32:00,76.1,66.9,29.82,North,0,8.5,16.1,73,0.00,,,0.00,WUHU216HW,2013-04-30 15:32:00,
2013-04-30 18:37:00,76.3,67.1,29.82,ENE,68,8.5,14.5,73,0.00,,,0.00,WUHU216HW,2013-04-30 15:37:00,
2013-04-30 18:42:00,76.5,67.6,29.82,ENE,68,5.8,14.3,74,0.00,,,0.00,WUHU216HW,2013-04-30 15:42:00,
2013-04-30 18:47:00,76.7,68.1,29.82,ENE,68,4.9,11.0,75,0.00,,,0.00,WUHU216HW,2013-04-30 15:47:00,
2013-04-30 18:52:00,76.7,68.1,29.82,ENE,68,9.2,13.4,75,0.00,,,0.00,WUHU216HW,2013-04-30 15:52:00,
2013-04-30 18:57:00,76.5,67.2,29.82,ESE,113,9.2,13.4,73,0.00,,,0.00,WUHU216HW,2013-04-30 15:57:00,
2013-04-30 19:02:00,76.5,67.2,29.83,ENE,68,11.4,13.2,73,0.00,,,0.00,WUHU216HW,2013-04-30 16:02:00,
2013-04-30 19:07:00,76.5,66.9,29.82,ESE,113,9.4,13.2,72,0.00,,,0.00,WUHU216HW,2013-04-30 16:07:00,
2013-04-30 19:12:00,76.3,65.4,29.82,East,90,10.7,12.8,69,0.00,,,0.00,WUHU216HW,2013-04-30 16:12:00,
2013-04-30 19:17:00,76.3,65.0,29.83,NE,45,6.3,12.8,68,0.00,,,0.00,WUHU216HW,2013-04-30 16:17:00,
2013-04-30 19:22:00,76.5,65.2,29.83,ENE,68,9.4,10.7,68,0.00,,,0.00,WUHU216HW,2013-04-30 16:22:00,
2013-04-30 19:27:00,76.5,64.7,29.83,ENE,68,6.7,10.5,67,0.00,,,0.00,WUHU216HW,2013-04-30 16:27:00,
2013-04-30 19:32:00,76.5,64.7,29.83,NE,45,1.3,10.3,67,0.00,,,0.00,WUHU216HW,2013-04-30 16:32:00,
2013-04-30 19:37:00,76.7,64.9,29.83,East,90,4.7,7.4,67,0.00,,,0.00,WUHU216HW,2013-04-30 16:37:00,
2013-04-30 19:42:00,76.7,65.3,29.83,NNE,23,12.8,12.8,68,0.00,,,0.00,WUHU216HW,2013-04-30 16:42:00,
2013-04-30 19:47:00,76.7,64.9,29.83,North,0,3.6,12.8,67,0.00,,,0.00,WUHU216HW,2013-04-30 16:47:00,
2013-04-30 19:52:00,76.7,64.9,29.84,NE,45,9.2,12.8,67,0.00,,,0.00,WUHU216HW,2013-04-30 16:52:00,
2013-04-30 19:57:00,76.7,64.4,29.84,East,90,8.9,11.0,66,0.00,,,0.00,WUHU216HW,2013-04-30 16:57:00,
2013-04-30 20:02:00,76.7,64.4,29.83,ENE,68,6.7,10.7,66,0.00,,,0.00,WUHU216HW,2013-04-30 17:02:00,
2013-04-30 20:07:00,76.7,64.4,29.84,ENE,68,11.4,12.8,66,0.00,,,0.00,WUHU216HW,2013-04-30 17:07:00,
2013-04-30 20:12:00,76.7,64.4,29.84,ENE,68,7.6,12.8,66,0.00,,,0.00,WUHU216HW,2013-04-30 17:12:00,
2013-04-30 20:17:00,76.7,64.4,29.84,NNE,23,8.5,12.1,66,0.00,,,0.00,WUHU216HW,2013-04-30 17:17:00,
2013-04-30 20:22:00,76.7,64.9,29.84,East,90,5.8,12.1,67,0.00,,,0.00,WUHU216HW,2013-04-30 17:22:00,
2013-04-30 20:27:00,76.7,64.4,29.84,ENE,68,6.7,11.9,66,0.00,,,0.00,WUHU216HW,2013-04-30 17:27:00,
2013-04-30 20:32:00,76.7,64.4,29.84,ENE,68,7.4,11.9,66,0.00,,,0.00,WUHU216HW,2013-04-30 17:32:00,
2013-04-30 20:37:00,76.7,64.9,29.84,NE,45,8.3,12.1,67,0.00,,,0.00,WUHU216HW,2013-04-30 17:37:00,
2013-04-30 20:42:00,76.7,65.3,29.84,ENE,68,11.6,12.1,68,0.00,,,0.00,WUHU216HW,2013-04-30 17:42:00,
2013-04-30 20:47:00,76.5,65.6,29.84,ENE,68,11.0,11.6,69,0.00,,,0.00,WUHU216HW,2013-04-30 17:47:00,
2013-04-30 20:52:00,76.5,66.1,29.84,East,90,8.5,11.9,70,0.00,,,0.00,WUHU216HW,2013-04-30 17:52:00,
2013-04-30 20:57:00,76.5,66.4,29.84,ENE,68,10.7,11.9,71,0.00,,,0.00,WUHU216HW,2013-04-30 17:57:00,
2013-04-30 21:02:00,76.5,66.4,29.84,NE,45,10.5,11.0,71,0.00,,,0.00,WUHU216HW,2013-04-30 18:02:00,
2013-04-30 21:07:00,76.5,66.9,29.84,ESE,113,8.5,11.2,72,0.00,,,0.00,WUHU216HW,2013-04-30 18:07:00,
2013-04-30 21:12:00,76.3,67.1,29.84,ENE,68,9.8,11.6,73,0.00,,,0.00,WUHU216HW,2013-04-30 18:12:00,
2013-04-30 21:17:00,76.3,67.1,29.84,ESE,113,10.3,12.8,73,0.00,,,0.00,WUHU216HW,2013-04-30 18:17:00,
2013-04-30 21:22:00,76.3,67.4,29.84,ESE,113,6.7,12.8,74,0.00,,,0.00,WUHU216HW,2013-04-30 18:22:00,
2013-04-30 21:27:00,76.1,67.2,29.84,East,90,6.9,11.6,74,0.00,,,0.00,WUHU216HW,2013-04-30 18:27:00,
2013-04-30 21:32:00,76.1,67.2,29.84,NE,45,5.8,12.5,74,0.00,,,0.00,WUHU216HW,2013-04-30 18:32:00,
2013-04-30 21:37:00,76.1,67.2,29.84,ENE,68,7.8,12.5,74,0.00,,,0.00,WUHU216HW,2013-04-30 18:37:00,
2013-04-30 21:42:00,76.3,67.4,29.84,ENE,68,6.3,11.4,74,0.00,,,0.00,WUHU216HW,2013-04-30 18:42:00,
2013-04-30 21:48:00,76.3,67.8,29.84,ENE,68,8.7,11.9,75,0.00,,,0.00,WUHU216HW,2013-04-30 18:48:00,
2013-04-30 21:53:00,76.1,67.7,29.84,ENE,68,9.4,11.9,75,0.00,,,0.00,WUHU216HW,2013-04-30 18:53:00,
2013-04-30 21:57:00,76.1,67.7,29.84,East,90,7.6,10.1,75,0.00,,,0.00,WUHU216HW,2013-04-30 18:57:00,
2013-04-30 22:03:00,76.1,67.7,29.84,East,90,9.8,9.8,75,0.00,,,0.00,WUHU216HW,2013-04-30 19:03:00,
2013-04-30 22:08:00,76.1,67.7,29.84,ENE,68,11.2,11.2,75,0.00,,,0.00,WUHU216HW,2013-04-30 19:08:00,
2013-04-30 22:13:00,76.1,67.7,29.83,East,90,8.3,11.2,75,0.00,,,0.00,WUHU216HW,2013-04-30 19:13:00,
2013-04-30 22:18:00,76.1,67.2,29.84,NE,45,7.4,11.2,74,0.00,,,0.00,WUHU216HW,2013-04-30 19:18:00,
2013-04-30 22:23:00,76.1,66.9,29.84,NE,45,6.0,10.3,73,0.00,,,0.00,WUHU216HW,2013-04-30 19:23:00,
2013-04-30 22:28:00,76.1,66.9,29.84,ENE,68,9.8,9.8,73,0.00,,,0.00,WUHU216HW,2013-04-30 19:28:00,
2013-04-30 22:33:00,76.1,66.9,29.84,ESE,113,5.4,9.8,73,0.00,,,0.00,WUHU216HW,2013-04-30 19:33:00,
2013-04-30 22:38:00,76.1,66.9,29.84,East,90,7.6,10.1,73,0.00,,,0.00,WUHU216HW,2013-04-30 19:38:00,
2013-04-30 22:43:00,76.1,66.9,29.84,ENE,68,7.6,10.1,73,0.00,,,0.00,WUHU216HW,2013-04-30 19:43:00,
2013-04-30 22:48:00,76.1,66.9,29.84,ENE,68,7.4,9.6,73,0.00,,,0.00,WUHU216HW,2013-04-30 19:48:00,
2013-04-30 22:53:00,76.1,66.9,29.84,ESE,113,6.5,11.2,73,0.00,,,0.00,WUHU216HW,2013-04-30 19:53:00,
2013-04-30 22:58:00,76.1,66.9,29.84,ENE,68,5.4,11.2,73,0.00,,,0.00,WUHU216HW,2013-04-30 19:58:00,
2013-04-30 23:03:00,76.1,66.9,29.84,ESE,113,8.9,9.2,73,0.00,,,0.00,WUHU216HW,2013-04-30 20:03:00,
2013-04-30 23:08:00,76.1,66.9,29.83,East,90,10.1,10.1,73,0.00,,,0.00,WUHU216HW,2013-04-30 20:08:00,
2013-04-30 23:13:00,76.0,67.1,29.83,NE,45,6.3,10.5,74,0.00,,,0.00,WUHU216HW,2013-04-30 20:13:00,
2013-04-30 23:18:00,76.0,67.1,29.83,ENE,68,4.3,10.5,74,0.00,,,0.00,WUHU216HW,2013-04-30 20:18:00,
2013-04-30 23:23:00,76.0,67.1,29.83,East,90,7.2,8.7,74,0.00,,,0.00,WUHU216HW,2013-04-30 20:23:00,
2013-04-30 23:28:00,76.0,67.5,29.83,ENE,68,6.9,10.3,75,0.00,,,0.00,WUHU216HW,2013-04-30 20:28:00,
2013-04-30 23:33:00,76.0,67.5,29.83,ENE,68,6.5,12.1,75,0.00,,,0.00,WUHU216HW,2013-04-30 20:33:00,
2013-04-30 23:38:00,76.0,67.5,29.82,ENE,68,8.9,12.1,75,0.00,,,0.00,WUHU216HW,2013-04-30 20:38:00,
2013-04-30 23:43:00,76.0,67.9,29.82,ESE,113,7.4,11.2,76,0.00,,,0.00,WUHU216HW,2013-04-30 20:43:00,
2013-04-30 23:48:00,76.0,67.9,29.81,East,90,9.2,11.2,76,0.00,,,0.00,WUHU216HW,2013-04-30 20:48:00,
2013-04-30 23:53:00,76.0,68.2,29.82,ENE,68,8.1,10.5,77,0.00,,,0.00,WUHU216HW,2013-04-30 20:53:00,
2013-04-30 23:58:00,76.0,68.2,29.82,East,90,8.1,9.6,77,0.00,,,0.00,WUHU216HW,2013-04-30 20:58:00,